Weather reports worldwide

Advertisment
Mte.Calamita, Italy (16197): temperature & dewpoint: 21.02.2020 15:00:00 - 27.02.2020 15:00:00 (CET)Mte.Calamita, Italy (16197): wind speed: 21.02.2020 15:00:00 - 27.02.2020 15:00:00 (CET)Mte.Calamita, Italy (16197): wind direction: 21.02.2020 15:00:00 - 27.02.2020 15:00:00 (CET)Mte.Calamita, Italy (16197): reduced air pressure: 21.02.2020 15:00:00 - 27.02.2020 15:00:00 (CET)Mte.Calamita, Italy (16197): visibility: 21.02.2020 15:00:00 - 27.02.2020 15:00:00 (CET)Mte.Calamita, Italy (16197): sunshine duration: 21.02.2020 15:00:00 - 27.02.2020 15:00:00 (CET)
Date & Time tt [°C] td [°C] ff [km/h] ff [kn] dd ppp [hPa] vv [km] sd [min]
27.02.2020 15:00:00 - - - - - - - -
27.02.2020 14:00:00 10,0 0,0 8 4 W - 10 -
27.02.2020 13:00:00 10,4 -0,1 8 4 W 1012,7 30 60
27.02.2020 12:00:00 10,0 1,0 15 8 W - 10 -
27.02.2020 11:00:00 9,0 1,0 15 8 W - 10 -
27.02.2020 10:00:00 7,8 1,6 11 6 N 1012,5 30 60
27.02.2020 09:00:00 7,0 2,0 15 8 N - 10 -
27.02.2020 08:00:00 6,0 3,0 18 10 N - 10 -
27.02.2020 07:00:00 6,6 2,5 15 8 N 1011,4 20 0
27.02.2020 06:00:00 - - - - - - - -
27.02.2020 05:00:00 - - - - - - - -
27.02.2020 04:00:00 - - - - - - - -
27.02.2020 03:00:00 - - - - - - - -
27.02.2020 02:00:00 - - - - - - - -
27.02.2020 01:00:00 - - - - - - - -
27.02.2020 00:00:00 - - - - - - - -
26.02.2020 23:00:00 - - - - - - - -
26.02.2020 22:00:00 - - - - - - - -
26.02.2020 21:00:00 - - - - - - - -
26.02.2020 20:00:00 8,0 -5,0 46 25 WNW - 10 -
26.02.2020 19:00:00 7,8 1,0 52 28 WNW 1001,4 15 0
26.02.2020 18:00:00 5,0 0,0 55 30 WNW - 10 -
26.02.2020 17:00:00 9,0 0,0 70 38 WNW - 10 -
26.02.2020 16:00:00 9,6 -0,6 65 35 WNW 999,2 30 30
26.02.2020 15:00:00 12,0 4,0 55 30 WNW - 10 -
26.02.2020 14:00:00 12,0 2,0 55 30 WNW - 10 -
26.02.2020 13:00:00 12,0 0,1 46 25 WNW 1001,5 30 60
26.02.2020 12:00:00 12,0 3,0 46 25 WNW - 10 -
26.02.2020 11:00:00 11,0 2,0 37 20 W - 10 -
26.02.2020 10:00:00 10,4 2,5 41 22 W 1003,6 30 0
26.02.2020 09:00:00 - - - - - - - -
26.02.2020 08:00:00 11,0 1,0 34 18 W - 10 -
26.02.2020 07:00:00 10,8 0,0 28 15 NNW 1003,0 30 0
26.02.2020 06:00:00 - - - - - - - -
26.02.2020 05:00:00 - - - - - - - -
26.02.2020 04:00:00 - - - - - - - -
26.02.2020 03:00:00 - - - - - - - -
26.02.2020 02:00:00 - - - - - - - -
26.02.2020 01:00:00 - - - - - - - -
26.02.2020 00:00:00 - - - - - - - -
25.02.2020 23:00:00 - - - - - - - -
25.02.2020 22:00:00 - - - - - - - -
25.02.2020 21:00:00 - - - - - - - -
25.02.2020 20:00:00 11,0 9,0 28 15 ESE - 0,1 -
25.02.2020 19:00:00 11,6 9,5 28 15 ESE 1007,7 0,1 0
25.02.2020 18:00:00 12,0 10,0 18 10 ESE - 10 -
25.02.2020 17:00:00 13,0 11,0 22 12 ESE - 10 -
25.02.2020 16:00:00 13,2 10,7 18 10 ESE 1008,9 20 36
25.02.2020 15:00:00 14,0 11,0 28 15 ESE - 10 -
25.02.2020 14:00:00 13,0 10,0 28 15 ESE - 10 -
25.02.2020 13:00:00 11,8 9,5 28 15 ESE 1011,3 15 0
25.02.2020 12:00:00 12,0 10,0 28 15 SSE - 10 -
25.02.2020 11:00:00 11,0 9,0 28 15 SSE - 10 -
25.02.2020 10:00:00 11,0 9,1 18 10 S 1013,8 15 12
25.02.2020 09:00:00 11,0 9,0 15 8 SSE - 10 -
25.02.2020 08:00:00 11,0 9,0 15 8 SSE - 0,1 -
25.02.2020 07:00:00 11,0 9,1 15 8 SSE 1014,0 0,1 0
25.02.2020 06:00:00 - - - - - - - -
25.02.2020 05:00:00 - - - - - - - -
25.02.2020 04:00:00 - - - - - - - -
25.02.2020 03:00:00 - - - - - - - -
25.02.2020 02:00:00 - - - - - - - -
25.02.2020 01:00:00 - - - - - - - -
25.02.2020 00:00:00 - - - - - - - -
24.02.2020 23:00:00 - - - - - - - -
24.02.2020 22:00:00 - - - - - - - -
24.02.2020 21:00:00 - - - - - - - -
24.02.2020 20:00:00 11,0 8,0 0 0 N - 10 -
24.02.2020 19:00:00 11,6 7,7 0 0 N 1018,9 20 0
24.02.2020 18:00:00 14,0 12,0 0 0 N - 10 -
24.02.2020 17:00:00 13,0 10,0 0 0 N - 10 -
24.02.2020 16:00:00 13,4 11,5 0 0 N 1019,3 30 60
24.02.2020 15:00:00 13,0 11,0 0 0 N - 10 -
24.02.2020 14:00:00 14,0 9,0 0 0 N - 10 -
24.02.2020 13:00:00 13,6 9,5 8 4 ESE 1021,4 30 60
24.02.2020 12:00:00 13,0 10,0 8 4 ESE - 10 -
24.02.2020 11:00:00 11,0 9,0 8 4 ESE - 10 -
24.02.2020 10:00:00 9,4 7,4 8 4 ESE 1022,5 15 18
24.02.2020 09:00:00 9,0 6,0 0 0 N - 0,1 -
24.02.2020 08:00:00 9,0 6,0 0 0 N - 0,1 -
24.02.2020 07:00:00 9,2 7,2 0 0 N 1022,4 0,1 0
24.02.2020 06:00:00 - - - - - - - -
24.02.2020 05:00:00 - - - - - - - -
24.02.2020 04:00:00 - - - - - - - -
24.02.2020 03:00:00 - - - - - - - -
24.02.2020 02:00:00 - - - - - - - -
24.02.2020 01:00:00 - - - - - - - -
24.02.2020 00:00:00 - - - - - - - -
23.02.2020 23:00:00 - - - - - - - -
23.02.2020 22:00:00 - - - - - - - -
23.02.2020 21:00:00 - - - - - - - -
23.02.2020 20:00:00 - - - - - - - -
23.02.2020 19:00:00 10,6 8,7 0 0 N 1026,8 15 0
23.02.2020 18:00:00 11,0 9,0 0 0 N - 10 -
23.02.2020 17:00:00 11,0 9,0 0 0 N - 10 -
23.02.2020 16:00:00 11,8 9,4 0 0 N 1027,2 20 24
23.02.2020 15:00:00 12,0 10,0 0 0 N - 10 -
23.02.2020 14:00:00 12,0 10,0 0 0 N - 10 -
23.02.2020 13:00:00 12,0 9,5 0 0 N 1029,5 20 18
23.02.2020 12:00:00 11,0 9,0 0 0 N - 10 -
23.02.2020 11:00:00 11,0 9,0 0 0 N - 10 -
23.02.2020 10:00:00 8,8 6,8 0 0 N 1030,5 20 18
23.02.2020 09:00:00 9,0 7,0 0 0 N - 10 -
23.02.2020 08:00:00 8,0 6,0 0 0 N - 10 -
23.02.2020 07:00:00 8,2 6,2 0 0 N 1029,8 12 0
23.02.2020 06:00:00 - - - - - - - -
23.02.2020 05:00:00 - - - - - - - -
23.02.2020 04:00:00 - - - - - - - -
23.02.2020 03:00:00 - - - - - - - -
23.02.2020 02:00:00 - - - - - - - -
23.02.2020 01:00:00 - - - - - - - -
23.02.2020 00:00:00 - - - - - - - -
22.02.2020 23:00:00 - - - - - - - -
22.02.2020 22:00:00 - - - - - - - -
22.02.2020 21:00:00 - - - - - - - -
22.02.2020 20:00:00 10,0 8,0 0 0 N - 10 -
22.02.2020 19:00:00 10,4 8,5 0 0 N 1030,5 20 0
22.02.2020 18:00:00 12,0 10,0 0 0 N - 10 -
22.02.2020 17:00:00 13,0 10,0 0 0 N - 10 -
22.02.2020 16:00:00 14,0 8,2 0 0 N 1029,4 30 60
22.02.2020 15:00:00 14,0 10,0 0 0 N - 10 -
22.02.2020 14:00:00 14,0 9,0 0 0 N - 10 -
22.02.2020 13:00:00 13,2 9,5 0 0 N 1030,3 30 60
22.02.2020 12:00:00 13,0 9,0 8 4 SSE - 10 -
22.02.2020 11:00:00 13,0 5,0 8 4 SSE - 10 -
22.02.2020 10:00:00 11,0 6,7 0 0 N 1029,1 30 60
22.02.2020 09:00:00 10,0 6,0 0 0 N - 10 -
22.02.2020 08:00:00 8,0 6,0 0 0 N - 10 -
22.02.2020 07:00:00 8,0 5,6 0 0 N 1027,1 20 0
22.02.2020 06:00:00 - - - - - - - -
22.02.2020 05:00:00 - - - - - - - -
22.02.2020 04:00:00 - - - - - - - -
22.02.2020 03:00:00 - - - - - - - -
22.02.2020 02:00:00 - - - - - - - -
22.02.2020 01:00:00 - - - - - - - -
22.02.2020 00:00:00 - - - - - - - -
21.02.2020 23:00:00 - - - - - - - -
21.02.2020 22:00:00 - - - - - - - -
21.02.2020 21:00:00 - - - - - - - -
21.02.2020 20:00:00 - - - - - - - -
21.02.2020 19:00:00 9,0 7,4 5 3 N 1023,6 25 0
21.02.2020 18:00:00 10,0 8,0 0 0 N - 10 -
21.02.2020 17:00:00 12,0 9,0 0 0 N - 10 -
21.02.2020 16:00:00 12,8 8,7 0 0 N 1022,3 15 36
21.02.2020 15:00:00 13,0 6,0 0 0 N - 10 -

tt = temperature
td = dewpoint
ff = wind speed
dd = wind direction
ppp = reduced air pressure
vv = visibility
sd = sunshine duration

Next stations